| time (UTC) | temp C | wind direction | speed KPH | gust KPH | rain 1hr cm | rain 24hr cm | rain mn cm | humidity % | barometer mb |
| 20260503021624 | 10 | 107 | 1.6 | 6.4 | 0.00 | 0.00 | 1.96 | 100 | 1006.8 |
| 20260503021159 | 10 | 248 | 3.2 | 6.4 | 0.00 | 0.00 | 1.96 | 100 | 1006.8 |
| 20260503020304 | 10 | 244 | 1.6 | 6.4 | 0.00 | 0.00 | 1.96 | 100 | 1006.8 |
| 20260503015624 | 10 | 275 | 3.2 | 6.4 | 0.00 | 0.00 | 1.96 | 100 | 1006.8 |
| 20260503015156 | 10 | 267 | 3.2 | 6.4 | 0.00 | 0.00 | 1.96 | 100 | 1006.8 |
| 20260503014304 | 10 | 244 | 3.2 | 6.4 | 0.00 | 0.00 | 1.96 | 100 | 1006.8 |
| 20260503013624 | 10 | 277 | 1.6 | 4.8 | 0.00 | 0.00 | 1.96 | 100 | 1006.4 |
| 20260503012944 | 10 | 314 | 1.6 | 3.2 | 0.00 | 0.00 | 1.96 | 100 | 1006.4 |
| 20260503012305 | 10 | 241 | 1.6 | 4.8 | 0.00 | 0.00 | 1.96 | 100 | 1006.4 |
| 20260503011624 | 10 | 203 | 3.2 | 4.8 | 0.00 | 0.00 | 1.96 | 100 | 1006.1 |
| 20260503010944 | 10 | 203 | 1.6 | 3.2 | 0.00 | 0.00 | 1.96 | 100 | 1006.1 |
| 20260503010304 | 10 | 160 | 0.0 | 3.2 | 0.00 | 0.00 | 1.96 | 99 | 1006.1 |
| 20260503005624 | 10 | 22 | 0.0 | 3.2 | 0.00 | 0.00 | 1.96 | 99 | 1005.8 |
| 20260503005156 | 10 | 318 | 1.6 | 3.2 | 0.00 | 0.00 | 1.96 | 99 | 1005.8 |
| 20260503004304 | 10 | 327 | 1.6 | 3.2 | 0.00 | 0.00 | 1.96 | 100 | 1005.8 |
| 20260503003624 | 10 | 166 | 1.6 | 3.2 | 0.00 | 0.00 | 1.96 | 99 | 1005.4 |
| 20260503002944 | 10 | 157 | 1.6 | 3.2 | 0.00 | 0.00 | 1.96 | 99 | 1005.4 |
| 20260503002305 | 10 | 214 | 1.6 | 3.2 | 0.00 | 0.00 | 1.96 | 99 | 1005.4 |
| 20260503001624 | 10 | 43 | 1.6 | 1.6 | 0.00 | 0.00 | 1.96 | 97 | 1005.4 |
| 20260503001155 | 10 | 76 | 1.6 | 1.6 | 0.00 | 0.00 | 1.96 | 96 | 1005.4 |
| 20260503000516 | 11 | 329 | 1.6 | 3.2 | 0.00 | 0.00 | 1.96 | 97 | 1005.4 |
| 20260502235625 | 11 | 327 | 1.6 | 3.2 | 0.00 | 0.00 | 1.96 | 95 | 1005.1 |
| 20260502235157 | 11 | 327 | 1.6 | 3.2 | 0.00 | 0.00 | 1.96 | 92 | 1005.1 |
| 20260502234304 | 10 | 353 | 1.6 | 3.2 | 0.00 | 0.00 | 1.96 | 92 | 1005.1 |
| 20260502233624 | 10 | 43 | 1.6 | 3.2 | 0.00 | 0.00 | 1.96 | 91 | 1005.1 |
| 20260502232944 | 11 | 44 | 1.6 | 3.2 | 0.00 | 0.00 | 1.96 | 94 | 1005.1 |
| 20260502232305 | 11 | 352 | 1.6 | 3.2 | 0.00 | 0.00 | 1.96 | 91 | 1005.1 |
| 20260502231624 | 11 | 351 | 1.6 | 3.2 | 0.00 | 0.00 | 1.96 | 91 | 1005.1 |
| 20260502230944 | 11 | 352 | 1.6 | 4.8 | 0.00 | 0.00 | 1.96 | 89 | 1005.1 |
| 20260502230304 | 11 | 312 | 3.2 | 4.8 | 0.00 | 0.00 | 1.96 | 88 | 1005.1 |
| 20260502225624 | 11 | 29 | 1.6 | 4.8 | 0.00 | 0.00 | 1.96 | 89 | 1005.1 |
| 20260502224944 | 11 | 35 | 1.6 | 4.8 | 0.00 | 0.00 | 1.96 | 88 | 1005.1 |
| 20260502224304 | 11 | 338 | 1.6 | 6.4 | 0.00 | 0.00 | 1.96 | 85 | 1005.1 |
| 20260502223624 | 11 | 334 | 1.6 | 8.0 | 0.00 | 0.00 | 1.96 | 86 | 1005.1 |
| 20260502222944 | 11 | 9 | 3.2 | 9.7 | 0.00 | 0.00 | 1.96 | 86 | 1004.7 |
| 20260502222305 | 11 | 40 | 3.2 | 8.0 | 0.00 | 0.00 | 1.96 | 87 | 1004.7 |
| 20260502221624 | 11 | 23 | 4.8 | 8.0 | 0.00 | 0.00 | 1.96 | 88 | 1004.7 |
| 20260502220944 | 11 | 12 | 3.2 | 12.9 | 0.00 | 0.00 | 1.96 | 87 | 1004.7 |
| 20260502220517 | 11 | 32 | 6.4 | 12.9 | 0.00 | 0.00 | 1.96 | 86 | 1004.7 |
| 20260502215625 | 11 | 346 | 4.8 | 8.0 | 0.00 | 0.00 | 1.96 | 88 | 1004.4 |
| 20260502214944 | 11 | 12 | 1.6 | 6.4 | 0.00 | 0.00 | 1.96 | 90 | 1004.4 |
| 20260502214304 | 11 | 52 | 3.2 | 11.3 | 0.00 | 0.00 | 1.96 | 91 | 1004.4 |
| 20260502213624 | 11 | 24 | 4.8 | 9.7 | 0.00 | 0.00 | 1.96 | 89 | 1004.7 |
| 20260502212944 | 11 | 326 | 6.4 | 12.9 | 0.00 | 0.00 | 1.96 | 90 | 1004.7 |
| 20260502212305 | 11 | 332 | 6.4 | 12.9 | 0.00 | 0.00 | 1.96 | 89 | 1004.7 |
| 20260502211624 | 11 | 329 | 8.0 | 12.9 | 0.00 | 0.00 | 1.96 | 88 | 1004.7 |
| 20260502210944 | 11 | 328 | 8.0 | 14.5 | 0.00 | 0.00 | 1.96 | 89 | 1004.7 |
| 20260502210518 | 11 | 331 | 8.0 | 14.5 | 0.00 | 0.00 | 1.96 | 88 | 1004.7 |
| 20260502205833 | 11 | 308 | 8.0 | 14.5 | 0.00 | 0.00 | 1.96 | 86 | 1004.7 |
| 20260502204945 | 11 | 319 | 4.8 | 12.9 | 0.00 | 0.00 | 1.93 | 94 | 1004.4 |
| 20260502204304 | 11 | 335 | 8.0 | 12.9 | 0.00 | 0.00 | 1.93 | 91 | 1004.4 |
| 20260502203624 | 11 | 340 | 8.0 | 12.9 | 0.00 | 0.00 | 1.93 | 92 | 1004.7 |
| 20260502202944 | 11 | 326 | 8.0 | 16.1 | 0.00 | 0.00 | 1.93 | 92 | 1004.7 |
| 20260502202305 | 11 | 335 | 6.4 | 17.7 | 0.00 | 0.00 | 1.93 | 92 | 1004.7 |
| 20260502201624 | 11 | 332 | 9.7 | 17.7 | 0.00 | 0.00 | 1.93 | 90 | 1004.7 |
| 20260502200945 | 11 | 334 | 6.4 | 19.3 | 0.00 | 0.00 | 1.93 | 91 | 1004.7 |
| 20260502200305 | 11 | 327 | 12.9 | 19.3 | 0.00 | 0.00 | 1.93 | 88 | 1004.7 |
| 20260502195624 | 11 | 328 | 9.7 | 16.1 | 0.00 | 0.00 | 1.93 | 90 | 1004.7 |
| 20260502195154 | 11 | 5 | 6.4 | 16.1 | 0.00 | 0.00 | 1.93 | 90 | 1004.7 |
| 20260502194305 | 11 | 349 | 3.2 | 12.9 | 0.00 | 0.00 | 1.93 | 93 | 1004.7 |
| 20260502193836 | 11 | 2 | 6.4 | 17.7 | 0.00 | 0.00 | 1.93 | 93 | 1004.7 |
| 20260502192944 | 11 | 329 | 9.7 | 16.1 | 0.00 | 0.00 | 1.91 | 92 | 1005.1 |
| 20260502192305 | 11 | 324 | 8.0 | 12.9 | 0.00 | 0.00 | 1.91 | 93 | 1005.1 |
| 20260502191624 | 11 | 343 | 4.8 | 12.9 | 0.00 | 0.00 | 1.91 | 92 | 1005.4 |
| 20260502191153 | 11 | 323 | 6.4 | 16.1 | 0.00 | 0.00 | 1.88 | 92 | 1005.1 |
| 20260502190304 | 11 | 1 | 6.4 | 14.5 | 0.00 | 0.00 | 1.85 | 90 | 1005.1 |
| 20260502185624 | 11 | 26 | 4.8 | 19.3 | 0.00 | 0.00 | 1.85 | 92 | 1005.1 |
| 20260502185155 | 11 | 30 | 6.4 | 19.3 | 0.00 | 0.00 | 1.85 | 93 | 1005.4 |
| 20260502184516 | 11 | 40 | 8.0 | 20.9 | 0.00 | 0.00 | 1.83 | 90 | 1005.1 |
| 20260502183624 | 11 | 334 | 11.3 | 20.9 | 0.00 | 0.00 | 1.83 | 91 | 1005.1 |
| 20260502182944 | 11 | 3 | 6.4 | 16.1 | 0.00 | 0.00 | 1.78 | 93 | 1005.1 |
| 20260502182305 | 11 | 359 | 8.0 | 16.1 | 0.00 | 0.00 | 1.78 | 92 | 1005.4 |
| 20260502181833 | 11 | 31 | 6.4 | 19.3 | 0.00 | 0.00 | 1.78 | 93 | 1005.4 |
| 20260502180944 | 11 | 40 | 9.7 | 19.3 | 0.00 | 0.00 | 1.78 | 91 | 1005.1 |
| 20260502180304 | 11 | 34 | 8.0 | 16.1 | 0.00 | 0.00 | 1.75 | 90 | 1005.1 |
| 20260502170304 | 11 | 22 | 8.0 | 17.7 | 0.00 | 0.00 | 1.70 | 94 | 1005.4 |
| 20260502164304 | 10 | 17 | 6.4 | 17.7 | 0.00 | 0.00 | 1.65 | 93 | 1006.1 |
| 20260502163838 | 11 | 22 | 8.0 | 20.9 | 0.00 | 0.00 | 1.63 | 92 | 1006.1 |
| 20260502162944 | 11 | 38 | 3.2 | 19.3 | 0.00 | 0.00 | 1.60 | 93 | 1006.4 |
| 20260502162305 | 11 | 19 | 6.4 | 20.9 | 0.00 | 0.00 | 1.55 | 94 | 1006.4 |
| 20260502161624 | 11 | 359 | 9.7 | 16.1 | 0.00 | 0.00 | 1.50 | 92 | 1006.4 |
| 20260502160944 | 11 | 21 | 8.0 | 16.1 | 0.00 | 0.00 | 1.47 | 93 | 1006.8 |
| 20260502160304 | 11 | 22 | 6.4 | 16.1 | 0.00 | 0.00 | 1.45 | 92 | 1006.8 |
| 20260502152305 | 11 | 360 | 6.4 | 19.3 | 0.00 | 0.00 | 1.37 | 96 | 1005.8 |
| 20260502151835 | 11 | 351 | 8.0 | 19.3 | 0.00 | 0.00 | 1.35 | 96 | 1005.8 |
| 20260502150944 | 11 | 15 | 4.8 | 11.3 | 0.00 | 0.00 | 1.27 | 97 | 1006.1 |
| 20260502150516 | 11 | 9 | 4.8 | 12.9 | 0.00 | 0.00 | 1.22 | 98 | 1006.4 |
| 20260502130302 | 11 | 24 | 4.8 | 12.9 | 0.00 | 0.00 | 0.64 | 95 | 1005.1 |
| 20260502122942 | 11 | 347 | 6.4 | 14.5 | 0.00 | 0.00 | 0.56 | 93 | 1005.1 |
| 20260502122305 | 11 | 323 | 6.4 | 14.5 | 0.00 | 0.00 | 0.56 | 93 | 1005.1 |
| 20260502121832 | 11 | 334 | 6.4 | 14.5 | 0.00 | 0.00 | 0.53 | 93 | 1005.1 |
| 20260502120943 | 11 | 330 | 8.0 | 14.5 | 0.00 | 0.00 | 0.51 | 93 | 1004.7 |
| 20260502120303 | 11 | 342 | 4.8 | 12.9 | 0.00 | 0.00 | 0.51 | 92 | 1005.1 |
| 20260502115622 | 11 | 336 | 4.8 | 14.5 | 0.00 | 0.00 | 0.48 | 92 | 1005.1 |
| 20260502114943 | 11 | 341 | 4.8 | 16.1 | 0.00 | 0.00 | 0.46 | 91 | 1005.1 |
| 20260502114515 | 11 | 325 | 6.4 | 12.9 | 0.00 | 0.00 | 0.43 | 92 | 1005.1 |
| 20260502113623 | 11 | 325 | 8.0 | 14.5 | 0.00 | 0.00 | 0.38 | 91 | 1005.1 |
| 20260502112942 | 11 | 324 | 8.0 | 19.3 | 0.00 | 0.00 | 0.36 | 91 | 1005.1 |
| 20260502112305 | 11 | 325 | 6.4 | 17.7 | 0.00 | 0.00 | 0.36 | 91 | 1005.1 |
| 20260502111833 | 11 | 313 | 8.0 | 16.1 | 0.00 | 0.00 | 0.33 | 91 | 1005.1 |
| 20260502110943 | 11 | 307 | 9.7 | 16.1 | 0.00 | 0.00 | 0.30 | 90 | 1005.1 |
| 20260502110514 | 12 | 317 | 8.0 | 14.5 | 0.00 | 0.00 | 0.25 | 91 | 1005.1 |
| 20260502105834 | 12 | 309 | 8.0 | 19.3 | 0.00 | 0.00 | 0.20 | 91 | 1005.1 |
| 20260502105155 | 12 | 309 | 9.7 | 19.3 | 0.00 | 0.00 | 0.18 | 90 | 1005.1 |
| 20260502104302 | 12 | 293 | 9.7 | 16.1 | 0.00 | 0.00 | 0.10 | 89 | 1005.1 |
| 20260502103623 | 12 | 310 | 8.0 | 16.1 | 0.00 | 0.00 | 0.08 | 89 | 1005.1 |
| 20260502102942 | 12 | 309 | 6.4 | 11.3 | 0.00 | 0.00 | 0.03 | 88 | 1005.1 |
| 20260502102305 | 12 | 248 | 3.2 | 8.0 | 0.00 | 0.00 | 0.03 | 90 | 1005.1 |
| 20260502100942 | 11 | 302 | 4.8 | 8.0 | 0.00 | 0.00 | 0.00 | 92 | 1004.7 |
| 20260502100302 | 11 | 311 | 4.8 | 8.0 | 0.00 | 0.00 | 0.00 | 92 | 1004.7 |
| 20260502090942 | 12 | 313 | 3.2 | 8.0 | 0.00 | 0.00 | 0.00 | 90 | 1005.1 |
| 20260502090302 | 11 | 345 | 3.2 | 8.0 | 0.00 | 0.00 | 0.00 | 90 | 1004.7 |
| 20260502070943 | 11 | 330 | 4.8 | 6.4 | 0.00 | 0.00 | 0.00 | 92 | 1004.4 |
| 20260502070303 | 11 | 317 | 3.2 | 6.4 | 0.00 | 0.00 | 0.00 | 94 | 1004.4 |
| 20260502065623 | 11 | 313 | 6.4 | 6.4 | 0.00 | 0.00 | 0.00 | 94 | 1004.4 |
| 20260502064943 | 11 | 312 | 3.2 | 4.8 | 0.00 | 0.00 | 0.00 | 94 | 1004.4 |
| 20260502064303 | 11 | 295 | 3.2 | 4.8 | 0.00 | 0.00 | 0.00 | 94 | 1004.4 |
| 20260502063834 | 11 | 357 | 1.6 | 3.2 | 0.00 | 0.00 | 0.00 | 95 | 1004.4 |
| 20260502062943 | 11 | 4 | 1.6 | 3.2 | 0.00 | 0.00 | 0.00 | 94 | 1004.7 |
| 20260502062515 | 11 | 317 | 1.6 | 3.2 | 0.00 | 0.00 | 0.00 | 93 | 1004.7 |
| 20260502061624 | 11 | 76 | 0.0 | 3.2 | 0.00 | 0.00 | 0.00 | 95 | 1005.1 |
| 20260502060943 | 11 | 254 | 0.0 | 3.2 | 0.00 | 0.00 | 0.00 | 94 | 1005.1 |
| 20260502060303 | 11 | 335 | 1.6 | 3.2 | 0.00 | 0.00 | 0.00 | 93 | 1005.1 |
| 20260502055623 | 11 | 274 | 1.6 | 3.2 | 0.00 | 0.00 | 0.00 | 95 | 1005.1 |
| 20260502054943 | 11 | 306 | 1.6 | 3.2 | 0.00 | 0.00 | 0.00 | 95 | 1005.1 |
| 20260502054514 | 11 | 301 | 3.2 | 3.2 | 0.00 | 0.00 | 0.00 | 95 | 1005.1 |
| 20260502053623 | 11 | 312 | 1.6 | 3.2 | 0.00 | 0.00 | 0.00 | 96 | 1005.1 |
| 20260502052943 | 11 | 315 | 3.2 | 3.2 | 0.00 | 0.00 | 0.00 | 96 | 1005.1 |
| 20260502052306 | 11 | 306 | 3.2 | 4.8 | 0.00 | 0.00 | 0.00 | 96 | 1005.1 |
| 20260502051836 | 11 | 311 | 1.6 | 3.2 | 0.00 | 0.00 | 0.00 | 96 | 1005.4 |
| 20260502050943 | 11 | 309 | 1.6 | 3.2 | 0.00 | 0.00 | 0.00 | 95 | 1005.4 |
| 20260502050513 | 11 | 339 | 1.6 | 3.2 | 0.00 | 0.00 | 0.00 | 96 | 1005.4 |
| 20260502045623 | 11 | 307 | 1.6 | 3.2 | 0.00 | 0.00 | 0.00 | 96 | 1005.4 |
| 20260502044943 | 11 | 329 | 1.6 | 3.2 | 0.00 | 0.00 | 0.00 | 96 | 1005.4 |
| 20260502044303 | 11 | 323 | 3.2 | 3.2 | 0.00 | 0.00 | 0.00 | 96 | 1005.4 |
| 20260502043623 | 11 | 330 | 1.6 | 3.2 | 0.00 | 0.00 | 0.00 | 96 | 1005.8 |
| 20260502042944 | 11 | 329 | 1.6 | 3.2 | 0.00 | 0.00 | 0.00 | 96 | 1005.8 |
| 20260502042305 | 11 | 8 | 0.0 | 1.6 | 0.00 | 0.00 | 0.00 | 97 | 1005.8 |
| 20260502041624 | 11 | 120 | 0.0 | 3.2 | 0.00 | 0.00 | 0.00 | 97 | 1005.8 |
| 20260502040944 | 11 | 316 | 1.6 | 3.2 | 0.00 | 0.00 | 0.00 | 97 | 1005.8 |
| 20260502040513 | 11 | 329 | 1.6 | 1.6 | 0.00 | 0.00 | 0.00 | 97 | 1005.8 |
| 20260502035623 | 11 | 41 | 1.6 | 3.2 | 0.00 | 0.00 | 0.23 | 97 | 1005.4 |
| 20260502034943 | 11 | 350 | 1.6 | 4.8 | 0.00 | 0.00 | 0.23 | 97 | 1005.8 |
| 20260502034303 | 11 | 341 | 1.6 | 4.8 | 0.00 | 0.00 | 0.23 | 97 | 1005.8 |
| 20260502033623 | 10 | 328 | 1.6 | 3.2 | 0.00 | 0.00 | 0.23 | 97 | 1006.1 |
| 20260502032943 | 10 | 321 | 1.6 | 3.2 | 0.00 | 0.00 | 0.23 | 98 | 1006.1 |
| 20260502032305 | 10 | 315 | 1.6 | 1.6 | 0.00 | 0.00 | 0.23 | 99 | 1006.1 |
| 20260502031833 | 10 | 5 | 1.6 | 1.6 | 0.00 | 0.00 | 0.23 | 99 | 1006.1 |
| 20260502030943 | 10 | 345 | 1.6 | 3.2 | 0.00 | 0.00 | 0.23 | 99 | 1006.1 |
| 20260502030304 | 10 | 44 | 1.6 | 3.2 | 0.00 | 0.00 | 0.23 | 98 | 1006.1 |
| 20260502025834 | 10 | 67 | 1.6 | 3.2 | 0.00 | 0.00 | 0.23 | 98 | 1006.1 |
| 20260502025155 | 10 | 228 | 1.6 | 3.2 | 0.00 | 0.00 | 0.23 | 98 | 1006.4 |
| 20260502024303 | 10 | 147 | 1.6 | 3.2 | 0.00 | 0.00 | 0.23 | 98 | 1006.4 |
| 20260502023624 | 10 | 184 | 1.6 | 3.2 | 0.00 | 0.00 | 0.23 | 98 | 1006.4 |
| 20260502022944 | 10 | 219 | 1.6 | 3.2 | 0.00 | 0.00 | 0.23 | 98 | 1006.4 |
| 20260502022513 | 10 | 81 | 1.6 | 3.2 | 0.00 | 0.00 | 0.23 | 97 | 1006.1 |